Уфра

Turkmenistan     40˚00′00″N   53˚01′58″E
temp.,
°C
wind,
m/s
gust,
m/s
humid.,
%
clouds,
%
prec.,
mm/h
press.,
hPa
HPBL,
m
28 november, sat
sat2823:00+7˚ne226611 0.0 1036183
02:00+6˚ese45734 0.0 1036230
05:00+6˚e56713 0.0 1036192
08:00+6˚ese68740 0.0 1036245
11:00+7˚ese67660 0.0 1036418
14:00+9˚ese55500 0.0 1035678
17:00+9˚e674717 0.0 1033590
20:00+7˚e71062100 0.0 1032371
29 november, sun
sun2923:00+7˚e81166100 0.0 1032326
02:00+7˚e6965100 0.0 1031277
05:00+6˚e686585 0.0 1030223
08:00+5˚e5865100 0.0 1029172
11:00+7˚e895678 0.0 1030365
14:00+9˚se445087 0.0 1028452
17:00+11˚e794293 0.0 1027671
20:00+9˚e111443100 0.0 1027486
30 november, mon
mon3023:00+8˚e101347100 0.0 1027341
02:00+7˚e91150100 0.0 1025324
05:00+7˚e8957100 0.1 1025413
08:00+4˚e81082100 2.0 1025400
11:00+4˚e91090100 5.4 1026376
14:00+3˚e9987100 1.4 1025308
17:00+3˚e6788100 1.6 1025285
20:00+3˚e7981100 0.0 1025260
1 december, tue
tue123:00+4˚ese678398 0.0 1025295
02:00+4˚e458493 0.2 1025227
05:00+4˚e568697 0.5 1024236
08:00+5˚ese6787100 0.1 1025295
11:00+6˚ese5785100 0.2 1026390
14:00+8˚se567797 0.0 1025417
17:00+9˚ese457284 0.0 1025437
20:00+8˚e567884 0.0 1026279
2 december, wed
wed223:00+7˚ese457889 0.0 1026262
02:00+7˚ese447991 0.0 1026220
05:00+6˚e348062 0.0 1026118
08:00+7˚e237543 0.0 102699
11:00+8˚e226371 0.0 1027153
14:00+10˚ene125597 0.0 1026347
17:00+11˚ene345098 0.0 1025335
20:00+8˚ene3555100 0.0 1025191